Location: Gro�bocka
(50.8204°N, 11.9702°E)
Time: 07:30:13
(UTC+00:00)

USA 215 - Pass Details

Date: 29 October 2020
Orbit: 1102 x 1106 km, 123.0° (Epoch: 28 November)

Event Time Altitude Azimuth Distance (km) Brightness Sun altitude
Exits shadow 18:10:08 39° 77° (ENE) 1,602 3.6 -22.3°
Maximum altitude 18:12:32 61° 15° (NNE) 1,240 3.4 -22.7°
Drops below altitude 10° 18:18:57 10° 298° (WNW) 2,966 6.5 -23.7°
Sets 18:21:28 0° 295° (WNW) 3,926 7.4 -24.1°
